Stations météo

réclame
Mon MeteoGroup
Macon, France (7385): Température de l'air & dewpoint: 12.01.2020 14:00:00 - 18.01.2020 14:00:00 (CET)Macon, France (7385): Température de l'air 5cm: 12.01.2020 14:00:00 - 18.01.2020 14:00:00 (CET)Macon, France (7385): Température de l'air -20cm & Température de l'air -100cm: 12.01.2020 14:00:00 - 18.01.2020 14:00:00 (CET)Macon, France (7385): Vitesse du vent & gusts: 12.01.2020 14:00:00 - 18.01.2020 14:00:00 (CET)Macon, France (7385): Direction du vent: 12.01.2020 14:00:00 - 18.01.2020 14:00:00 (CET)Macon, France (7385): reduced air pressure: 12.01.2020 14:00:00 - 18.01.2020 14:00:00 (CET)Macon, France (7385): visibility: 12.01.2020 14:00:00 - 18.01.2020 14:00:00 (CET)Macon, France (7385): Ensoleillement: 12.01.2020 14:00:00 - 18.01.2020 14:00:00 (CET)Macon, France (7385): Quantités de précipitations: 12.01.2020 14:00:00 - 18.01.2020 14:00:00 (CET)
Date & Time tt [°C] td [°C] tt 5cm [°C] tt -20cm [°C] tt -100cm [°C] ff [km/h] ff [knt] fx [km/h] fx [knt] dd ppp [hPa] vv [km] sd [min] rr [mm]
18.01.2020 14:00:00 8,7 2,0 11,0 6,6 9,1 11 6 19 10 NW 1028,8 20 55 0,0
18.01.2020 13:00:00 9,7 3,0 10,0 6,6 9,1 3 2 13 7 NNW 1029,3 18 54 0,0
18.01.2020 12:00:00 8,0 2,4 8,4 6,5 9,1 3 2 7 4 E 1030,5 20 19 0,0
18.01.2020 11:00:00 6,7 2,8 4,0 6,6 9,1 5 3 8 5 SE 1031,1 20 30 0,0
18.01.2020 10:00:00 4,1 1,5 3,3 6,6 9,1 0 0 8 5 N 1031,4 20 0 0,0
18.01.2020 09:00:00 3,1 1,5 2,4 6,6 9,1 5 3 11 6 WNW 1031,3 20 0 0,0
18.01.2020 08:00:00 3,1 1,1 2,0 6,7 9,1 3 2 9 5 NW 1031,0 20 0 0,0
18.01.2020 07:00:00 2,9 1,3 0,2 6,8 9,1 3 2 8 4 N 1030,8 20 0 0,0
18.01.2020 06:00:00 3,5 0,9 -0,3 6,8 9,1 0 0 6 4 N 1030,6 20 0 0,0
18.01.2020 05:00:00 5,3 1,0 3,1 6,8 9,1 5 3 8 5 S 1030,8 20 0 0,0
18.01.2020 04:00:00 5,5 1,2 2,1 6,9 9,1 4 2 11 6 W 1030,9 20 0 0,0
18.01.2020 03:00:00 5,5 1,2 1,6 6,9 9,1 5 3 15 8 WSW 1030,7 20 0 0,0
18.01.2020 02:00:00 5,9 1,6 2,5 7,0 9,1 5 3 27 15 W 1030,2 20 0 0,0
18.01.2020 01:00:00 5,6 1,3 3,5 7,0 9,1 5 3 44 24 N 1029,7 20 0 0,0
18.01.2020 00:00:00 6,3 1,8 5,1 7,1 9,1 22 12 42 23 W 1028,9 20 0 0,0
17.01.2020 23:00:00 6,7 2,2 5,5 7,0 9,1 21 12 34 19 WNW 1028,4 20 0 0,0
17.01.2020 22:00:00 7,4 3,1 6,1 7,0 9,1 14 8 34 18 W 1027,8 20 0 0,0
17.01.2020 21:00:00 8,2 4,0 6,5 7,0 9,1 14 8 27 15 W 1026,9 20 0 0,0
17.01.2020 20:00:00 8,3 4,5 5,9 7,0 9,1 13 7 23 13 W 1026,4 20 0 0,0
17.01.2020 19:00:00 7,8 4,7 5,2 7,0 9,1 6 3 11 6 W 1025,3 20 0 0,0
17.01.2020 18:00:00 8,0 4,2 5,7 6,9 9,1 3 2 14 7 WSW 1024,3 20 0 0,0
17.01.2020 17:00:00 7,9 4,5 6,5 6,9 9,1 6 4 33 18 W 1023,3 20 0 0,0
17.01.2020 16:00:00 8,5 5,8 7,5 6,8 9,1 10 5 46 25 WNW 1022,8 20 0 0,6
17.01.2020 15:00:00 9,2 8,3 9,0 6,7 9,1 5 3 12 7 SSE 1022,2 12 0 0,0
17.01.2020 14:00:00 9,8 8,2 9,7 6,7 9,1 8 5 18 10 S 1022,2 18 0 0,0
17.01.2020 13:00:00 9,3 7,6 7,9 6,7 9,1 7 4 32 18 S 1022,4 20 0 2,7
17.01.2020 12:00:00 8,3 7,2 7,5 6,6 9,1 9 5 16 9 S 1022,8 8 0 2,2
17.01.2020 11:00:00 8,0 6,8 7,2 6,6 9,1 10 5 17 9 S 1023,0 10 0 1,4
17.01.2020 10:00:00 8,4 5,9 7,2 6,6 9,1 8 4 17 9 S 1023,2 13 0 0,4
17.01.2020 09:00:00 8,1 4,9 6,2 6,7 9,1 5 3 12 6 S 1023,2 20 0 0,0
17.01.2020 08:00:00 7,8 4,7 6,8 6,7 9,1 8 4 22 12 SE 1022,9 20 0 0,0
17.01.2020 07:00:00 7,9 5,0 5,1 6,7 9,1 14 7 25 13 S 1022,8 20 0 0,0
17.01.2020 06:00:00 6,6 4,4 4,9 6,8 9,1 13 7 26 14 SSE 1022,4 20 0 0,0
17.01.2020 05:00:00 7,1 4,6 4,5 6,8 9,1 14 8 21 12 S 1022,5 20 0 0,0
17.01.2020 04:00:00 6,3 4,0 1,9 6,9 9,1 13 7 22 12 S 1022,9 20 0 0,0
17.01.2020 03:00:00 5,2 3,5 1,8 6,9 9,1 6 3 22 12 SSE 1023,6 18 0 0,0
17.01.2020 02:00:00 6,0 3,7 0,4 6,9 9,1 9 5 14 8 SSE 1024,0 20 0 0,0
17.01.2020 01:00:00 6,5 4,3 1,4 7,0 9,1 4 2 10 6 SW 1024,2 20 0 0,0
17.01.2020 00:00:00 7,0 4,3 5,4 7,0 9,1 12 6 24 13 S 1024,2 20 0 0,0
16.01.2020 23:00:00 7,1 4,2 5,5 7,0 9,1 9 5 26 14 S 1024,4 20 0 0,0
16.01.2020 22:00:00 7,2 4,7 5,3 7,0 9,1 16 8 22 12 SSE 1024,6 20 0 0,0
16.01.2020 21:00:00 7,4 4,2 4,6 7,0 9,1 13 7 19 10 S 1025,0 20 0 0,0
16.01.2020 20:00:00 7,5 3,5 4,7 7,0 9,1 9 5 24 13 SE 1025,5 20 0 0,0
16.01.2020 19:00:00 8,4 3,6 5,8 7,0 9,1 10 5 21 11 SSE 1025,6 20 0 0,0
16.01.2020 18:00:00 9,7 3,9 7,6 6,9 9,1 12 7 30 16 SSE 1025,4 20 0 0,0
16.01.2020 17:00:00 11,3 4,5 9,7 6,8 9,1 15 8 32 17 SSE 1025,4 20 42 0,0
16.01.2020 16:00:00 12,7 5,1 13,7 6,8 9,1 17 9 32 17 SSE 1025,4 20 60 0,0
16.01.2020 15:00:00 12,6 6,0 15,2 6,7 9,1 9 5 21 12 S 1025,7 20 60 0,0
16.01.2020 14:00:00 11,8 5,6 12,2 6,7 9,1 11 6 24 13 S 1026,3 19 60 0,0
16.01.2020 13:00:00 10,8 5,5 11,8 6,6 9,1 15 8 25 13 S 1027,4 20 60 0,0
16.01.2020 12:00:00 9,7 4,7 11,5 6,7 9,1 16 9 25 13 SSE 1028,1 20 60 0,0
16.01.2020 11:00:00 7,5 5,1 7,4 6,7 9,1 10 6 16 9 SSE 1028,9 17 60 0,0
16.01.2020 10:00:00 5,6 4,2 0,7 6,8 9,1 4 2 6 4 ESE 1029,0 13 60 0,0
16.01.2020 09:00:00 3,5 3,2 -1,9 6,9 9,1 0 0 3 2 N 1028,9 0,9 15 0,0
16.01.2020 08:00:00 2,9 2,3 -1,6 7,0 9,1 2 1 6 3 SSW 1028,8 1,0 0 0,0
16.01.2020 07:00:00 4,6 4,2 -1,2 7,0 9,1 0 0 5 3 N 1028,6 3,3 0 0,0
16.01.2020 06:00:00 5,1 4,4 -0,2 7,0 9,1 3 2 6 4 SE 1028,3 9 0 0,0
16.01.2020 05:00:00 5,7 4,0 0,7 7,1 9,1 5 3 7 4 ESE 1028,4 15 0 0,0
16.01.2020 04:00:00 6,4 4,4 2,0 7,1 9,1 5 3 8 4 SSE 1028,5 20 0 0,0
16.01.2020 03:00:00 7,4 4,9 4,4 7,0 9,1 4 2 11 6 S 1028,3 20 0 0,0
16.01.2020 02:00:00 7,9 5,2 6,4 7,0 9,1 5 3 12 7 S 1028,1 20 0 0,0
16.01.2020 01:00:00 8,2 5,0 7,0 7,0 9,1 6 3 11 6 S 1028,3 20 0 0,0
16.01.2020 00:00:00 8,2 5,1 7,4 7,0 9,1 5 3 14 8 S 1028,1 20 0 0,0
15.01.2020 23:00:00 8,4 5,3 7,5 7,0 9,1 9 5 15 8 SE 1027,6 20 0 0,0
15.01.2020 22:00:00 8,6 5,3 7,5 7,0 9,1 8 5 21 11 SSE 1026,9 20 0 0,0
15.01.2020 21:00:00 8,9 5,6 8,0 7,0 9,2 13 7 29 15 S 1026,3 20 0 0,0
15.01.2020 20:00:00 9,1 5,5 8,0 6,9 9,1 18 10 31 17 S 1025,9 20 0 0,0
15.01.2020 19:00:00 9,7 5,5 8,5 6,9 9,2 21 12 36 19 S 1025,2 20 0 0,0
15.01.2020 18:00:00 10,5 5,0 9,1 6,8 9,1 21 12 34 18 SSE 1024,1 20 0 0,0
15.01.2020 17:00:00 11,8 5,2 10,6 6,7 9,1 23 12 46 25 S 1023,1 20 37 0,0
15.01.2020 16:00:00 13,0 5,4 13,8 6,6 9,1 30 16 48 26 S 1021,7 20 60 0,0
15.01.2020 15:00:00 13,5 5,4 14,3 6,5 9,1 28 15 52 28 SSE 1021,1 20 60 0,0
15.01.2020 14:00:00 13,3 5,4 13,1 6,4 9,1 30 16 54 29 SSE 1021,0 20 40 0,0
15.01.2020 13:00:00 12,6 5,5 12,0 6,4 9,2 23 12 47 26 S 1021,5 20 8 0,0
15.01.2020 12:00:00 11,9 5,3 11,5 6,3 9,1 23 13 44 24 S 1021,3 20 1 0,0
15.01.2020 11:00:00 11,5 4,9 10,1 6,3 9,1 30 16 49 26 S 1021,0 20 30 0,0
15.01.2020 10:00:00 9,9 3,8 7,5 6,4 9,1 23 12 38 20 S 1020,5 20 60 0,0
15.01.2020 09:00:00 7,5 3,2 5,1 6,4 9,2 18 10 28 15 SSE 1020,1 20 14 0,0
15.01.2020 08:00:00 6,7 3,1 4,9 6,4 9,2 13 7 29 16 SSE 1019,6 20 0 0,0
15.01.2020 07:00:00 7,5 3,5 4,4 6,5 9,2 17 9 28 15 SSE 1019,4 20 0 0,0
15.01.2020 06:00:00 7,0 3,2 3,3 6,5 9,2 9 5 21 11 SSE 1019,1 20 0 0,0
15.01.2020 05:00:00 7,4 3,8 4,2 6,5 9,2 15 8 22 12 SE 1018,9 20 0 0,0
15.01.2020 04:00:00 6,2 3,2 0,7 6,6 9,2 10 5 19 10 SSE 1019,2 20 0 0,0
15.01.2020 03:00:00 6,3 3,3 1,0 6,6 9,2 0 0 23 12 N 1019,5 20 0 0,0
15.01.2020 02:00:00 7,6 4,0 3,7 6,6 9,2 12 7 21 11 SSE 1019,2 20 0 0,0
15.01.2020 01:00:00 7,3 3,5 4,3 6,6 9,2 5 3 22 12 S 1019,5 20 0 0,0
15.01.2020 00:00:00 7,4 4,0 5,6 6,6 9,2 11 6 22 12 SE 1019,6 20 0 0,0
14.01.2020 23:00:00 8,5 4,3 6,4 6,6 9,2 19 10 31 17 SSE 1019,3 20 0 0,0
14.01.2020 22:00:00 7,8 4,0 6,5 6,6 9,2 17 9 32 17 SSE 1019,2 20 0 0,0
14.01.2020 21:00:00 8,1 3,7 3,4 6,6 9,2 16 9 26 14 SSE 1019,4 20 0 0,0
14.01.2020 20:00:00 8,6 3,4 6,9 6,5 9,2 14 7 27 15 S 1019,7 20 0 0,0
14.01.2020 19:00:00 9,4 3,6 7,8 6,4 9,2 18 10 35 19 S 1019,1 20 0 0,0
14.01.2020 18:00:00 10,5 3,3 8,9 6,4 9,2 21 11 35 19 S 1018,8 20 0 0,0
14.01.2020 17:00:00 11,4 4,4 10,6 6,2 9,2 20 11 44 24 SSE 1018,6 20 52 0,0
14.01.2020 16:00:00 12,5 5,2 11,8 6,1 9,2 28 15 45 24 SSE 1018,2 20 20 0,0
14.01.2020 15:00:00 12,3 5,2 12,6 6,0 9,2 22 12 45 25 SSE 1018,1 20 0 0,0
14.01.2020 14:00:00 12,5 5,4 13,0 5,9 9,2 27 15 46 25 SSE 1018,3 20 38 0,0
14.01.2020 13:00:00 12,4 5,3 13,5 5,9 9,2 27 15 44 24 SSE 1018,6 20 60 0,0
14.01.2020 12:00:00 11,2 5,1 11,4 5,9 9,2 24 13 39 21 SSE 1019,2 20 57 0,0
14.01.2020 11:00:00 8,6 4,2 7,6 5,9 9,2 17 9 28 15 SSE 1019,8 20 60 0,0
14.01.2020 10:00:00 6,6 2,7 4,4 6,0 9,2 16 8 24 13 SSE 1019,6 20 56 0,0
14.01.2020 09:00:00 4,3 1,5 2,1 6,0 9,2 11 6 22 12 SSE 1019,5 20 13 0,0
14.01.2020 08:00:00 4,0 1,0 -0,7 6,1 9,2 11 6 21 11 S 1019,2 20 0 0,0
14.01.2020 07:00:00 2,5 0,1 -1,0 6,2 9,2 4 2 12 7 S 1019,1 20 0 0,0
14.01.2020 06:00:00 3,6 0,1 -0,5 6,2 9,2 8 4 16 9 S 1018,7 20 0 0,0
14.01.2020 05:00:00 3,2 0,3 0,7 6,3 9,2 9 5 20 11 SSE 1018,8 20 0 0,0
14.01.2020 04:00:00 4,0 0,7 0,9 6,4 9,2 9 5 19 10 SSE 1018,4 20 0 0,0
14.01.2020 03:00:00 2,7 0,4 0,2 6,5 9,2 10 5 16 9 SSE 1018,8 18 0 0,0
14.01.2020 02:00:00 3,1 0,5 -0,5 6,6 9,2 6 3 14 8 SSE 1019,3 18 0 0,0
14.01.2020 01:00:00 2,1 0,5 -1,1 6,6 9,2 2 1 12 6 ENE 1019,7 14 0 0,0
14.01.2020 00:00:00 2,5 1,5 -1,2 6,7 9,2 6 3 11 6 ESE 1019,7 6 0 0,0
13.01.2020 23:00:00 2,8 2,1 -0,4 6,7 9,2 8 4 11 6 ESE 1019,4 6 0 0,0
13.01.2020 22:00:00 2,5 1,8 0,3 6,8 9,2 8 4 13 7 SE 1019,3 3,3 0 0,0
13.01.2020 21:00:00 3,3 2,3 1,9 6,8 9,2 11 6 16 9 SSE 1019,7 6 0 0,0
13.01.2020 20:00:00 3,9 2,7 2,4 6,8 9,2 10 5 16 9 SSE 1020,1 7 0 0,0
13.01.2020 19:00:00 5,0 3,5 3,7 6,8 9,2 13 7 18 10 S 1020,3 8 0 0,0
13.01.2020 18:00:00 5,4 3,6 4,1 6,7 9,2 10 5 19 10 SSE 1020,8 12 0 0,0
13.01.2020 17:00:00 6,5 4,2 6,2 6,7 9,2 11 6 25 14 SSE 1020,6 13 0 0,0
13.01.2020 16:00:00 6,4 4,6 6,7 6,7 9,2 16 9 23 12 S 1021,2 11 0 0,0
13.01.2020 15:00:00 6,6 4,8 7,5 6,6 9,2 15 8 24 13 SSE 1021,5 11 0 0,0
13.01.2020 14:00:00 6,5 5,0 6,7 6,5 9,2 15 8 23 12 SSE 1022,5 8 0 0,0
13.01.2020 13:00:00 6,6 5,2 6,9 6,5 9,2 12 7 21 11 SSE 1023,3 7 0 0,0
13.01.2020 12:00:00 5,5 4,9 5,3 6,5 9,2 11 6 18 10 S 1024,7 3,2 0 0,0
13.01.2020 11:00:00 4,7 4,4 4,6 6,5 9,2 11 6 20 11 S 1025,4 0,9 0 0,0
13.01.2020 10:00:00 4,1 3,7 4,2 6,5 9,2 11 6 20 11 S 1025,6 1,4 0 0,0
13.01.2020 09:00:00 4,0 3,4 3,9 6,5 9,2 9 5 16 9 SSE 1025,9 2,9 0 0,0
13.01.2020 08:00:00 4,0 2,5 3,9 6,5 9,2 6 3 13 7 SSE 1026,2 7 0 0,0
13.01.2020 07:00:00 4,1 2,3 3,8 6,5 9,2 6 3 14 7 SSE 1026,4 9 0 0,0
13.01.2020 06:00:00 3,9 2,3 3,8 6,5 9,2 10 5 13 7 SSE 1026,6 8 0 0,0
13.01.2020 05:00:00 3,9 2,6 3,8 6,5 9,2 3 2 7 4 SE 1027,1 7 0 0,0
13.01.2020 04:00:00 4,0 2,7 3,9 6,5 9,2 3 2 5 3 SSE 1027,5 6 0 0,0
13.01.2020 03:00:00 4,3 2,5 4,1 6,5 9,2 0 0 3 1 N 1028,0 10 0 0,0
13.01.2020 02:00:00 4,0 2,2 3,9 6,5 9,2 0 0 5 3 N 1028,3 10 0 0,0
13.01.2020 01:00:00 4,5 2,7 4,2 6,6 9,2 0 0 3 2 N 1028,8 10 0 0,0
13.01.2020 00:00:00 4,3 2,5 3,7 6,6 9,2 3 1 5 3 WNW 1029,3 10 0 0,0
12.01.2020 23:00:00 3,9 2,1 2,8 6,7 9,2 3 2 8 4 WNW 1029,8 9 0 0,0
12.01.2020 22:00:00 3,3 1,7 0,5 6,7 9,2 5 3 7 4 WNW 1030,3 10 0 0,0
12.01.2020 21:00:00 3,4 1,1 0,2 6,7 9,2 3 2 8 5 NW 1030,6 12 0 0,0
12.01.2020 20:00:00 3,3 1,0 0,1 6,8 9,2 4 2 8 4 WNW 1030,8 12 0 0,0
12.01.2020 19:00:00 4,4 1,8 0,2 6,8 9,2 4 2 7 4 WNW 1030,8 14 0 0,0
12.01.2020 18:00:00 4,7 1,2 0,4 6,7 9,2 0 0 3 1 N 1030,5 19 0 0,0
12.01.2020 17:00:00 6,6 1,7 3,9 6,7 9,2 3 1 7 4 S 1030,1 20 24 0,0
12.01.2020 16:00:00 7,9 1,7 9,1 6,6 9,2 3 1 9 5 S 1030,0 20 56 0,0
12.01.2020 15:00:00 8,6 1,9 11,4 6,6 9,2 4 2 12 7 S 1030,1 20 60 0,0
12.01.2020 14:00:00 7,9 1,9 9,0 6,6 9,2 6 3 14 7 SSE 1030,5 20 60 0,0

tt = Température de l'air
td = dewpoint
tt 5cm = Température de l'air 5cm
tt -20cm = Température de l'air -20cm
tt -100cm = Température de l'air -100cm
ff = Vitesse du vent
fx = gusts
dd = Direction du vent
ppp = reduced air pressure
vv = visibility
sd = Ensoleillement
rr = Quantités de précipitations

stations d'obs. à proximité